Cecil Field, FL

8:53 PM EDT on August 20, 2017 (GMT -0400)
Cecil

Weather History for KVQQ - July, 2013

Change the Weather History Date:

Friday, July 26, 2013

  Actual Average (KNIP) Record (KNIP)
Temperature  
Mean Temperature 80 °F -  
Max Temperature 89 °F 88 °F 98 °F (2012)
Min Temperature 71 °F 73 °F 69 °F (2000)
Cooling Degree Days 15    
Growing Degree Days 30 (Base 50)    
Moisture  
Dew Point 74 °F    
Average Humidity 89    
Maximum Humidity 100    
Minimum Humidity 59    
Precipitation  
Precipitation 0.00 in - - ()
Sea Level Pressure  
Sea Level Pressure 29.99 in    
Wind  
Wind Speed 1 mph (East)    
Max Wind Speed 7 mph    
Max Gust Speed -    
Visibility 8 miles    
Events Thunderstorm    
Averages and records for this station are not official NWS values.
T = Trace of Precipitation, MM = Missing Value Source: NWS Daily Summary

Daily Weather History Graph

Daily Weather History Graph

Search for Another Location

Airport or City:

Trip Planner

Search our weather history database for the weather conditions in past years. The results will help you decide how hot, cold, wet, or windy it might be!

Date:

Astronomy

Jul. 26, 2013 Rise Set
Actual Time 6:42 AM EDT 8:25 PM EDT
Civil Twilight 6:16 AM EDT 8:51 PM EDT
Nautical Twilight 5:44 AM EDT 9:22 PM EDT
Astronomical Twilight 5:11 AM EDT 9:56 PM EDT
Moon 11:04 PM EDT (7/26) 10:53 AM EDT (7/26)
Length of Visible Light 14h 35m
Length of Day
13h 42m
Waning Gibbous, 80% of the Moon is Illuminated
Jul 26
Waning Gibbous
Jul 29
Last Quarter
Aug 6
New
Aug 14
First Quarter
Aug 20
Full

Hourly Weather History & Observations

Time (EDT) Temp. Heat Index Dew Point Humidity Pressure Visibility Wind Dir Wind Speed Gust Speed Precip Events Conditions
12:15 AM 75.2 °F - 75.2 °F 100% 29.98 in 10.0 mi Calm Calm - N/A   Clear
12:35 AM 75.2 °F - 75.2 °F 100% 29.98 in 10.0 mi Calm Calm - N/A   Clear
12:55 AM 75.2 °F - 75.2 °F 100% 29.98 in 10.0 mi Calm Calm - N/A   Clear
1:15 AM 75.2 °F - 75.2 °F 100% 29.98 in 9.0 mi Calm Calm - N/A   Clear
1:35 AM 75.2 °F - 75.2 °F 100% 29.97 in 9.0 mi Calm Calm - N/A   Clear
1:55 AM 75.2 °F - 75.2 °F 100% 29.97 in 8.0 mi Calm Calm - N/A   Clear
2:15 AM 73.4 °F - 73.4 °F 100% 29.96 in 5.0 mi Calm Calm - N/A   Clear
2:35 AM 73.4 °F - 73.4 °F 100% 29.96 in 5.0 mi Calm Calm - N/A   Clear
2:55 AM 73.4 °F - 73.4 °F 100% 29.96 in 5.0 mi Calm Calm - N/A   Clear
3:15 AM 73.4 °F - 73.4 °F 100% 29.96 in 5.0 mi Calm Calm - N/A   Clear
3:35 AM 73.4 °F - 73.4 °F 100% 29.96 in 5.0 mi Calm Calm - N/A   Clear
3:55 AM 73.4 °F - 73.4 °F 100% 29.96 in 4.0 mi Calm Calm - N/A   Clear
4:15 AM 73.4 °F - 73.4 °F 100% 29.96 in 4.0 mi Calm Calm - N/A   Clear
4:35 AM 73.4 °F - 73.4 °F 100% 29.96 in 3.0 mi Calm Calm - N/A   Clear
4:55 AM 71.6 °F - 71.6 °F 100% 29.97 in 2.5 mi Calm Calm - N/A   Clear
5:15 AM 73.4 °F - 73.4 °F 100% 29.97 in 2.0 mi Calm Calm - N/A   Scattered Clouds
5:35 AM 71.6 °F - 71.6 °F 100% 29.98 in 1.8 mi Calm Calm - N/A   Scattered Clouds
5:55 AM 71.6 °F - 71.6 °F 100% 29.98 in 1.5 mi Calm Calm - N/A   Scattered Clouds
6:15 AM 71.6 °F - 71.6 °F 100% 29.99 in 2.5 mi Calm Calm - N/A   Clear
6:35 AM 71.6 °F - 71.6 °F 100% 29.99 in 0.8 mi Calm Calm - N/A   Mist
7:50 AM 73.4 °F - 73.4 °F 100% 30.00 in 7.0 mi Calm Calm - N/A   Clear
8:50 AM 77.0 °F - 77.0 °F 100% 30.02 in 7.0 mi Calm Calm - N/A   Clear
9:50 AM 82.4 °F 90.9 °F 77.0 °F 84% 30.02 in 10.0 mi Calm Calm - N/A   Clear
10:50 AM 86.0 °F 95.1 °F 75.2 °F 70% 30.03 in 10.0 mi Calm Calm - N/A   Scattered Clouds
11:50 AM 86.0 °F 95.1 °F 75.2 °F 70% 30.03 in 10.0 mi Calm Calm - N/A   Mostly Cloudy
12:50 PM 89.6 °F 99.8 °F 75.2 °F 62% 30.03 in 10.0 mi Calm Calm - N/A   Scattered Clouds
1:50 PM 89.6 °F 98.2 °F 73.4 °F 59% 30.01 in 10.0 mi NNE 3.5 mph - N/A   Scattered Clouds
2:50 PM 89.6 °F 98.2 °F 73.4 °F 59% 29.99 in 10.0 mi Calm Calm - N/A   Scattered Clouds
3:50 PM 87.8 °F 97.6 °F 75.2 °F 66% 29.98 in 10.0 mi ESE 6.9 mph - N/A   Scattered Clouds
4:50 PM 89.6 °F 99.8 °F 75.2 °F 62% 29.98 in 10.0 mi East 5.8 mph - N/A   Scattered Clouds
5:50 PM 89.6 °F 98.2 °F 73.4 °F 59% 29.98 in 10.0 mi ENE 3.5 mph - N/A   Partly Cloudy
6:50 PM 86.0 °F 93.4 °F 73.4 °F 66% 29.97 in 10.0 mi ENE 3.5 mph - N/A   Clear
7:50 PM 80.6 °F 85.4 °F 73.4 °F 79% 29.98 in 10.0 mi ENE 3.5 mph - N/A   Clear
8:15 PM 80.6 °F 86.2 °F 75.2 °F 84% 30.00 in 10.0 mi ENE 4.6 mph - N/A   Clear
8:35 PM 80.6 °F 86.2 °F 75.2 °F 84% 30.01 in 10.0 mi Calm Calm - N/A Thunderstorm Clear
8:55 PM 80.6 °F 86.2 °F 75.2 °F 84% 30.01 in 10.0 mi Calm Calm - N/A   Clear
9:15 PM 80.6 °F 86.2 °F 75.2 °F 84% 30.00 in 10.0 mi ESE 3.5 mph - N/A   Clear
9:35 PM 80.6 °F 86.2 °F 75.2 °F 84% 30.00 in 10.0 mi Calm Calm - N/A   Clear
9:55 PM 80.6 °F 86.2 °F 75.2 °F 84% 30.01 in 10.0 mi Calm Calm - N/A   Clear
10:15 PM 78.8 °F - 75.2 °F 89% 30.02 in 10.0 mi SSW 3.5 mph - N/A   Clear
10:35 PM 78.8 °F - 77.0 °F 94% 30.02 in 10.0 mi Calm Calm - N/A   Scattered Clouds
10:55 PM 77.0 °F - 75.2 °F 94% 30.02 in 10.0 mi Calm Calm - N/A   Partly Cloudy
11:15 PM 77.0 °F - 75.2 °F 94% 30.03 in 9.0 mi Calm Calm - N/A   Clear
11:35 PM 77.0 °F - 77.0 °F 100% 30.03 in 8.0 mi Calm Calm - N/A   Scattered Clouds
11:55 PM 77.0 °F - 75.2 °F 94% 30.02 in 6.0 mi Calm Calm - N/A   Mostly Cloudy